Naples, Italy

5:27 AM CEST on May 28, 2017 (GMT +0200)
Capodichino Mil

Weather History for LIRN - March, 2013

Change the Weather History Date:

Saturday, March 16, 2013

  Actual Average Record
Temperature  
Mean Temperature 44 °F -  
Max Temperature 51 °F 62 °F 69 °F (1999)
Min Temperature 37 °F 45 °F 33 °F (1997)
Degree Days  
Heating Degree Days 21    
Moisture  
Dew Point 28 °F    
Average Humidity 53    
Maximum Humidity 70    
Minimum Humidity 30    
Precipitation  
Precipitation 0.00 in 0.11 in - ()
Sea Level Pressure  
Sea Level Pressure 30.04 in    
Wind  
Wind Speed 4 mph ()    
Max Wind Speed 8 mph    
Max Gust Speed -    
Visibility 6.2 miles    
Events      
Averages and records for this station are not official NWS values.
T = Trace of Precipitation, MM = Missing Value Source: Averaged Metar Reports

Daily Weather History Graph

Daily Weather History Graph

Search for Another Location

Airport or City:

Trip Planner

Search our weather history database for the weather conditions in past years. The results will help you decide how hot, cold, wet, or windy it might be!

Date:

Astronomy

Mar. 16, 2013 Rise Set
Actual Time 6:12 AM CET 6:10 PM CET
Civil Twilight 5:45 AM CET 6:37 PM CET
Nautical Twilight 5:13 AM CET 7:09 PM CET
Astronomical Twilight 4:41 AM CET 7:42 PM CET
Moon 8:28 AM CET (3/16) 11:06 PM CET (3/16)
Length of Visible Light 12h 52m
Length of Day
11h 57m
Waxing Crescent, 21% of the Moon is Illuminated
Mar 16
Waxing Crescent
Mar 19
First Quarter
Mar 27
Full
Apr 3
Last Quarter
Apr 10
New

Hourly Weather History & Observations

Time (CET) Temp. Windchill Dew Point Humidity Pressure Visibility Wind Dir Wind Speed Gust Speed Precip Events Conditions
12:20 AM 41.0 °F 39.0 °F 28.4 °F 61% 29.86 in 6.2 mi NE 3.5 mph - N/A   Mostly Cloudy
1:20 AM 41.0 °F - 28.4 °F 61% 29.89 in 6.2 mi Variable 2.3 mph - N/A   Scattered Clouds
1:50 AM 41.0 °F 39.0 °F 28.4 °F 61% 29.92 in 6.2 mi North 3.5 mph - N/A   Mostly Cloudy
2:20 AM 41.0 °F 36.4 °F 28.4 °F 61% 29.92 in 6.2 mi NNE 6.9 mph - N/A   Mostly Cloudy
2:50 AM 39.2 °F 34.2 °F 28.4 °F 65% 29.92 in 6.2 mi NE 6.9 mph - N/A   Mostly Cloudy
3:20 AM 39.2 °F 35.0 °F 28.4 °F 65% 29.92 in 6.2 mi NE 5.8 mph - N/A   Mostly Cloudy
3:50 AM 39.2 °F 35.0 °F 28.4 °F 65% 29.95 in 6.2 mi NE 5.8 mph - N/A   Mostly Cloudy
4:20 AM 37.4 °F - 28.4 °F 70% 29.95 in 6.2 mi Variable 2.3 mph - N/A   Mostly Cloudy
4:50 AM 41.0 °F 38.0 °F 28.4 °F 61% 29.95 in 6.2 mi NNE 4.6 mph - N/A   Mostly Cloudy
5:20 AM 39.2 °F 35.9 °F 28.4 °F 65% 29.95 in 6.2 mi NE 4.6 mph - N/A   Mostly Cloudy
5:50 AM 41.0 °F 37.1 °F 28.4 °F 61% 29.98 in 6.2 mi NNE 5.8 mph - N/A   Mostly Cloudy
6:20 AM 41.0 °F 37.1 °F 30.2 °F 65% 29.98 in 6.2 mi NNE 5.8 mph - N/A   Mostly Cloudy
6:50 AM 41.0 °F 36.4 °F 30.2 °F 65% 30.01 in 6.2 mi NE 6.9 mph - N/A   Mostly Cloudy
7:20 AM - - - N/A% - 6.2 mi NNE 5.8 mph - N/A   Scattered Clouds
8:20 AM 44.6 °F 42.2 °F 28.4 °F 53% 30.04 in 6.2 mi NE 4.6 mph - N/A   Scattered Clouds
8:50 AM 44.6 °F 40.2 °F 26.6 °F 49% 30.04 in 6.2 mi ENE 8.1 mph - N/A   Partly Cloudy
9:20 AM 44.6 °F 40.2 °F 28.4 °F 53% 30.04 in 6.2 mi ENE 8.1 mph - N/A   Partly Cloudy
9:50 AM 46.4 °F 42.4 °F 26.6 °F 46% 30.06 in 6.2 mi NE 8.1 mph - N/A   Partly Cloudy
10:20 AM 46.4 °F 42.4 °F 24.8 °F 43% 30.06 in 6.2 mi ENE 8.1 mph - N/A   Partly Cloudy
10:50 AM 48.2 °F - 28.4 °F 46% 30.06 in 6.2 mi ENE 6.9 mph - N/A   Partly Cloudy
11:20 AM 48.2 °F - 24.8 °F 40% 30.06 in - NE 8.1 mph - N/A   Clear
11:50 AM 48.2 °F - 21.2 °F 34% 30.06 in - NE 6.9 mph - N/A   Clear
12:20 PM 50.0 °F - 24.8 °F 37% 30.06 in 6.2 mi Variable 3.5 mph - N/A   Partly Cloudy
12:50 PM 50.0 °F - 23.0 °F 35% 30.06 in 6.2 mi NE 8.1 mph - N/A   Partly Cloudy
1:20 PM 51.8 °F - 21.2 °F 30% 30.06 in 6.2 mi Variable 2.3 mph - N/A   Partly Cloudy
1:50 PM 50.0 °F - 21.2 °F 32% 30.06 in 6.2 mi Variable 2.3 mph - N/A   Partly Cloudy
2:20 PM 50.0 °F - 26.6 °F 40% 30.06 in 6.2 mi SSW 4.6 mph - N/A   Partly Cloudy
2:50 PM 50.0 °F - 28.4 °F 43% 30.06 in 6.2 mi SW 6.9 mph - N/A   Scattered Clouds
3:20 PM 51.8 °F - 28.4 °F 41% 30.06 in 6.2 mi SW 4.6 mph - N/A   Scattered Clouds
3:50 PM 50.0 °F - 28.4 °F 43% 30.06 in 6.2 mi SW 3.5 mph - N/A   Scattered Clouds
4:20 PM 48.2 °F - 28.4 °F 46% 30.06 in 6.2 mi SSW 5.8 mph - N/A   Scattered Clouds
4:50 PM 50.0 °F - 28.4 °F 43% 30.06 in 6.2 mi SSW 4.6 mph - N/A   Mostly Cloudy
5:20 PM 50.0 °F - 28.4 °F 43% 30.06 in 6.2 mi WSW 6.9 mph - N/A   Mostly Cloudy
5:50 PM 48.2 °F - 32.0 °F 54% 30.09 in 6.2 mi WSW 6.9 mph - N/A   Mostly Cloudy
6:20 PM 48.2 °F - 30.2 °F 50% 30.09 in 6.2 mi West 6.9 mph - N/A   Mostly Cloudy
6:50 PM 46.4 °F 44.3 °F 30.2 °F 53% 30.09 in 6.2 mi West 4.6 mph - N/A   Scattered Clouds
7:20 PM 46.4 °F 45.2 °F 30.2 °F 53% 30.09 in 6.2 mi West 3.5 mph - N/A   Scattered Clouds
7:50 PM 44.6 °F - 30.2 °F 57% 30.09 in 6.2 mi West 2.3 mph - N/A   Partly Cloudy
8:20 PM 44.6 °F - 30.2 °F 57% 30.12 in 6.2 mi West 2.3 mph - N/A   Scattered Clouds
8:50 PM 44.6 °F - 30.2 °F 57% 30.12 in - Variable 1.2 mph - N/A   Clear
9:20 PM 42.8 °F - 30.2 °F 61% 30.12 in - NNE 2.3 mph - N/A   Clear
9:50 PM 41.0 °F - 30.2 °F 65% 30.12 in - Calm Calm - N/A   Clear
10:20 PM 41.0 °F - 32.0 °F 70% 30.12 in - Variable 2.3 mph - N/A   Clear
10:50 PM 41.0 °F 39.0 °F 32.0 °F 70% 30.12 in - NNE 3.5 mph - N/A   Clear
11:20 PM 41.0 °F 38.0 °F 30.2 °F 65% 30.12 in - NNE 4.6 mph - N/A   Clear
11:50 PM 39.2 °F 37.0 °F 30.2 °F 70% 30.12 in - NNW 3.5 mph - N/A   Clear